Location: Grugua
(39.3833°N, 8.4667°E)
Time: 16:52:34
(UTC+00:00)

Daily predictions for brighter satellites

Satellite Brightness Start Highest point End
(mag) Time Altitude Azimuth Time Altitude Azimuth Time Altitude Azimuth
Cosmos 2237 4.3 19:17:05 10° S 19:22:39 60° ESE 19:28:15 10° NNE
ATLAS 2A CENTAUR R/B 4.4 19:02:16 10° SW 19:24:07 29° S 19:31:12 10° ESE
Cosmos 1470 2.8 19:22:04 10° N 19:26:02 70° E 19:29:56 10° SSE
Okean 2 Rocket 4.5 19:22:34 10° NNW 19:26:49 41° W 19:31:03 10° SSW
MOS 1 4.4 19:21:18 10° SSE 19:26:56 65° ENE 19:32:35 10° N
Cosmos 1975 Rocket 3.8 19:28:09 10° SSE 19:32:05 34° E 19:36:03 10° NNE
Cosmos 2263 Rocket 3.1 19:28:17 10° NNW 19:33:46 50° WSW 19:39:13 10° S
Cosmos 1626 3.9 19:32:23 10° SE 19:34:37 15° E 19:36:51 10° NE
Meteor 1-21 4.3 19:29:45 10° S 19:35:25 85° W 19:41:04 10° N
USA 81 4.4 19:30:36 10° N 19:35:41 47° E 19:40:43 10° SSE
In-Cosmos 22 4.2 19:30:42 10° S 19:35:50 56° E 19:41:01 10° NNE
FALCON 9 DEB 3.0 19:34:08 10° SW 19:37:12 77° NW 19:40:18 10° NE
Cosmos 1452 Rocket 3.7 19:35:58 10° SSW 19:41:14 78° WNW 19:46:32 10° NNE
USA 186 4.0 19:41:37 10° SSW 19:43:56 22° W 19:46:23 10° NW
SJ-6B 3.9 19:41:16 10° S 19:45:10 45° W 19:49:03 10° NNW
ERS-2 3.1 19:42:13 10° N 19:45:46 50° WNW 19:49:18 10° SSW
FALCON 9 DEB 2.9 19:43:24 10° SW 19:46:30 83° NW 19:49:38 10° NE
FALCON 9 DEB 3.4 19:45:03 10° WSW 19:48:07 63° NW 19:51:12 10° NE
Resurs 01 Rocket 1.8 19:45:48 10° SSE 19:50:05 56° ENE 19:54:25 10° N
IRS-1A Rocket 4.5 19:45:26 10° SSE 19:51:18 81° WSW 19:57:07 10° NNW
Cosmos 1707 3.4 19:48:36 10° SSW 19:52:25 57° W 19:56:16 10° N
Cosmos 1850 Rocket 4.1 19:47:51 10° NNW 19:53:08 68° ENE 19:58:03 11° SSE
Cosmos 2333 4.5 19:49:19 10° S 19:54:49 48° ESE 20:00:18 10° NE
Cosmos 1331 Rocket 4.0 19:51:01 10° S 19:56:10 63° ESE 20:01:23 10° NNE
OBJECT-B 3.3 19:57:37 10° SW 20:00:01 20° W 20:02:26 10° NW
Cosmos 1315 Rocket 4.0 19:59:29 10° NNW 20:03:25 44° W 20:07:17 10° SSW
Cosmos 2219 Rocket 2.7 19:59:13 10° S 20:04:28 40° ESE 20:09:43 10° NE
Cosmos 2333 Rocket 2.4 20:04:18 10° S 20:09:51 53° ESE 20:15:25 10° NNE
SL-4 R/B 2.5 20:08:01 10° SSW 20:12:05 39° SE 20:15:53 10° ENE
SPOT 1/Viking Rocket 3.8 20:09:27 16° SE 20:13:28 55° ENE 20:18:29 10° N
IGS 5A 3.5 20:09:44 12° S 20:13:34 82° W 20:17:45 10° NNW
Lacrosse 5 3.5 20:10:18 10° WNW 20:14:30 26° WSW 20:18:41 10° S
Cosmos 2123 Rocket 4.5 20:10:07 13° SSE 20:15:13 42° E 20:21:06 10° NNE
Landsat 7 3.8 20:11:35 13° SSE 20:15:51 88° E 20:20:38 10° NNW
Cosmos 1544 Rocket 4.1 20:12:25 10° N 20:16:40 42° ENE 20:19:17 21° SE
ATLAS CENTAUR R/B 2.4 20:13:27 10° NNW 20:17:36 39° NE 20:20:30 19° ESE
Cosmos 1461 2.8 20:13:58 10° NNW 20:18:07 79° WSW 20:20:43 21° SSE
Cosmos 1302 Rocket 4.2 20:13:18 10° S 20:18:20 49° ESE 20:23:23 10° NNE
Cosmos 1844 3.8 20:13:03 10° NNW 20:18:37 64° ENE 20:22:34 20° SE
Cosmos 1726 4.4 20:18:06 10° NW 20:20:55 21° W 20:23:44 10° SW
Cosmos 1455 Rocket 3.0 20:16:29 10° N 20:20:58 83° E 20:24:23 17° S
Uosat 12 SS-18 rocket 4.3 20:18:16 10° S 20:22:20 45° ESE 20:26:50 10° NE
Lacrosse 5 rocket 3.5 20:19:14 10° W 20:22:25 26° NW 20:25:30 10° NNE
ARIANE 5 R/B 3.3 20:24:09 22° SE 20:26:34 40° ENE 20:30:48 10° N
Cosmos 1674 3.3 20:23:16 10° SSW 20:26:53 53° W 20:30:31 10° N
KORONAS-FOTON 4.5 20:23:17 10° SSW 20:26:59 53° W 20:30:42 10° N
Cosmos 2237 Rocket 3.7 20:26:40 16° ESE 20:27:23 17° E 20:30:50 10° ENE
Cosmos 1741 Rocket 4.4 20:23:13 10° NNW 20:28:25 60° WSW 20:32:46 15° S
Cosmos 2360 Rocket 3.2 20:24:01 10° SW 20:29:26 48° WNW 20:34:54 10° NNE
Ariane Rocket 4.4 20:25:28 10° SSW 20:30:05 34° W 20:34:44 10° NNW
Cosmos 2100 Rocket 4.0 20:25:40 10° N 20:32:03 89° E 20:37:15 16° S
ASTRO E2 3.8 20:30:35 10° WSW 20:33:53 25° S 20:34:19 25° S
Cosmos 2322 Rocket 4.5 20:29:48 10° WSW 20:34:33 26° NW 20:39:19 10° N
SL-14 R/B 3.4 20:32:24 24° SSE 20:34:38 57° E 20:38:35 10° NNE
Centaur D AC-29 3.5 19:44:31 10° W 20:39:48 44° SSW 20:44:36 23° SE
Cosmos 1025 Rocket 3.2 20:36:14 12° SSW 20:40:16 76° W 20:44:38 10° N
SPOT 3 Rocket 4.2 20:38:16 13° S 20:42:40 52° W 20:47:44 10° NNW
Cosmos 2173 Rocket 4.1 20:36:56 10° N 20:43:20 80° W 20:48:22 17° S
Meteor 1-24 Rocket 4.1 20:41:26 26° SE 20:43:55 42° E 20:49:02 10° NNE
Cosmos 1536 Rocket 3.6 20:44:52 27° S 20:47:12 66° E 20:51:37 10° NNE
Cosmos 2016 Rocket 3.9 20:41:27 10° N 20:47:34 73° E 20:51:17 25° SSE
Cosmos 1953 3.3 20:44:41 10° NNW 20:48:34 45° W 20:51:19 18° SSW
SL-12 R/B (Aux Motor) 3.8 20:48:44 43° SW 20:49:21 70° SSE 20:53:22 10° ENE
Cosmos 1300 3.1 20:45:44 10° N 20:49:24 45° E 20:50:17 37° ESE
SL-8 R/B 3.7 20:44:41 10° WNW 20:49:29 73° SW 20:51:33 33° SE
Cosmos 1340 2.7 20:47:33 23° SSW 20:49:46 79° W 20:53:33 10° N
Cosmos 389 Rocket 4.5 20:48:51 10° NNE 20:51:02 16° ENE 20:51:04 16° ENE
Cosmos 968 Rocket 4.1 20:46:34 10° N 20:51:25 42° ENE 20:53:33 28° ESE
Cosmos 1867 4.5 20:50:07 10° NNW 20:55:15 39° NE 20:58:01 23° ESE
CARTOSAT-1 3.5 20:56:53 33° S 20:58:46 82° WSW 21:03:07 10° NNW
Cosmos 2322 4.2 20:53:58 10° SW 20:59:31 59° WNW 21:05:07 10° NNE
Cosmos 1992 Rocket 4.2 20:59:05 33° SSE 21:00:57 48° ESE 21:05:58 10° NNE
COSMOS 2428 2.8 20:56:36 10° SSW 21:02:20 83° WNW 21:08:07 10° NNE
Cosmos 1844 Rocket 3.5 20:57:06 10° NW 21:02:29 45° WSW 21:05:55 21° SSW
DNEPR-1 R/B 3.5 20:58:21 10° NNW 21:02:36 84° ENE 21:04:07 42° SE
Cosmos 1725 Rocket 3.9 20:56:33 10° N 21:02:46 82° E 21:06:09 29° SSE
GENESIS II 4.1 21:02:06 46° S 21:02:57 61° ESE 21:06:49 10° NE
Cosmos 2278 Rocket 3.4 20:59:05 10° N 21:04:06 31° ENE 21:06:37 22° E
H-2A R/B 3.7 21:02:19 10° NNE 21:06:15 44° E 21:06:36 43° ESE
ATLAS 3B R/B 3.4 21:01:48 10° SW 21:08:08 52° NW 21:14:42 10° NNE
Cosmos 1626 4.0 21:06:22 10° SW 21:09:33 27° WNW 21:12:46 10° NNW
ATLAS CENTAUR R/B 3.5 21:13:48 28° ESE 21:13:48 28° ESE 21:20:14 10° NE
Meteor 2-10 Rocket 3.8 21:12:25 10° N 21:17:19 50° ENE 21:18:34 40° ESE
Cosmos 405 3.5 21:15:45 10° NNW 21:19:06 49° W 21:19:35 44° SW
Terra 1.7 21:24:33 49° SSE 21:25:51 88° E 21:30:38 10° NNW
ERS-1 Rocket 3.2 21:24:00 37° S 21:25:55 65° WSW 21:30:57 10° NNW
Resurs 01 Rocket 4.2 21:25:06 10° WSW 21:26:54 12° W 21:28:43 10° WNW
Geosat 3.9 21:27:07 47° SSE 21:28:37 86° WSW 21:33:40 10° NNW
NOSS 0 Rocket 3.9 21:32:45 25° SSW 21:36:36 89° NW 21:42:53 10° NNE
Cosmos 1980 3.6 21:36:06 41° S 21:38:08 76° ESE 21:43:49 10° NNE
USA 215 3.4 21:32:06 10° ENE 21:38:21 47° SE 21:39:57 40° SSE
SPOT 5 3.6 21:36:40 34° SSW 21:38:28 49° W 21:43:13 10° NNW
Cosmos 1346 Rocket 2.9 21:38:56 63° SW 21:39:24 72° W 21:43:26 10° N
Celestis-02/Orion 38 4.5 21:40:15 53° SE 21:41:29 81° ENE 21:46:39 10° NNW
Cosmos 1726 Rocket 3.8 21:38:45 10° N 21:43:07 52° E 21:43:17 52° E
Cosmos 2058 Rocket 4.1 21:42:12 10° NNE 21:46:11 33° ENE 21:46:11 33° ENE
Cosmos 2219 Rocket 4.0 21:43:36 10° WSW 21:48:28 29° WNW 21:53:22 10° N
SL-4 R/B 3.5 21:47:49 10° W 21:51:42 35° NNW 21:55:18 10° NE
SJ 16-02 3.8 21:52:27 10° NE 21:53:57 11° ENE 21:54:55 11° ENE
Iridium 2 4.0 21:54:38 58° NNE 21:54:38 58° NNE 21:57:45 10° N
Cosmos 2333 Rocket 4.4 21:49:56 10° WSW 21:54:27 23° NW 21:58:57 10° N
ATLAS CENTAUR R/B 3.2 21:52:47 10° WNW 21:56:17 22° WSW 21:56:38 22° WSW
Cosmos 1703 4.5 21:58:22 32° ENE 21:58:22 32° ENE 22:01:04 10° NNE
Cosmos 1606 Rocket 3.5 21:54:43 10° N 21:59:10 78° W 21:59:21 76° SW
Cosmos 1892 Rocket 3.4 22:01:08 87° ESE 22:01:09 87° E 22:05:38 10° N
Cosmos 1503 Rocket 3.9 21:56:25 10° NNW 22:01:49 79° ENE 22:02:37 64° SE
SL-16 R/B 2.7 22:09:42 42° E 22:09:42 42° E 22:14:48 10° NE
Cosmos 2237 Rocket 2.5 22:08:25 34° SW 22:10:50 62° WNW 22:16:26 10° NNE
Cosmos 1455 2.8 22:10:04 10° N 22:13:08 55° NNW 22:13:08 55° NNW
Meteor 2-1 Rocket 4.2 22:09:24 10° N 22:14:55 64° E 22:15:37 59° ESE
Cosmos 1891 Rocket 4.4 22:11:02 10° N 22:17:17 84° E 22:18:37 58° SSE
ALOS 2 3.8 22:18:46 31° ENE 22:18:46 31° ENE 22:22:34 10° N
Cosmos 1513 Rocket 4.3 22:13:57 10° N 22:20:05 84° E 22:21:15 61° SSE
Cosmos 2228 4.4 22:22:26 10° NNW 22:26:17 30° W 22:26:31 30° W
Spot 4 3.8 22:27:56 75° ENE 22:27:56 75° ENE 22:32:41 10° N
Cosmos 1626 Rocket 4.2 22:28:46 48° ENE 22:28:46 48° ENE 22:32:21 10° NNE
Cosmos 1607 3.8 22:22:53 10° NW 22:29:17 78° WSW 22:30:17 63° S
Cosmos 1072 Rocket 4.5 22:25:44 10° N 22:32:08 78° W 22:33:23 59° SSW
Cosmos 1174 4.4 22:33:53 77° SSE 22:34:12 81° ESE 22:39:11 10° NNE
Cosmos 1602 Rocket 4.4 22:37:29 42° ENE 22:37:29 42° ENE 22:40:59 10° NNE
Cosmos 2346 Rocket 4.4 22:36:19 59° SSW 22:37:30 79° W 22:43:43 10° N
Cosmos 1777 Rocket 3.9 22:40:39 10° NNW 22:45:58 79° ENE 22:46:06 79° E
Cosmos 2278 Rocket 3.0 22:43:02 10° NW 22:48:11 36° WSW 22:48:27 36° WSW
Cosmos 2297 4.0 22:46:31 10° NNW 22:52:04 56° ENE 22:52:49 52° E
USA 229 DEB 3.5 22:54:53 60° SE 22:55:08 60° ESE 23:01:43 10° NE
USA 229 3.5 22:55:01 59° SE 22:55:15 60° ESE 23:01:48 10° NE
BREEZE-M DEB (TANK) 4.1 22:47:44 10° WSW 22:55:52 40° NNW 22:58:52 10° NE
Cosmos 1464 Rocket 4.4 22:52:49 10° NNW 22:58:58 52° W 23:00:09 46° SW
Meteor 1-4 Rocket 4.4 22:56:43 10° N 22:58:33 29° NNW 22:58:33 29° NNW
NOSS 3-1 (C) 3.1 23:02:13 66° WSW 23:02:51 75° NW 23:08:54 10° NNE
Cosmos 1634 Rocket 4.2 23:01:37 10° N 23:07:52 59° E 23:08:51 53° ESE
Cosmos 1943 Rocket 2.3 23:03:48 10° NNW 23:09:16 60° ENE 23:09:46 58° E
Meteor 1-11 4.0 23:11:48 81° SW 23:12:03 85° W 23:17:40 10° N
Cosmos 1892 4.5 23:14:27 28° NE 23:14:27 28° NE 23:16:39 10° NNE
NOSS 2-3 (E) 4.1 23:14:30 55° N 23:14:30 55° N 23:18:20 10° NNE
COBE Rocket 4.5 23:14:22 48° W 23:14:22 48° W 23:18:50 10° NNW
NOSS 3-1 (A) 3.1 23:15:08 75° E 23:15:08 75° E 23:20:56 10° NE
Cosmos 1812 Rocket 4.1 23:12:56 10° N 23:16:27 57° NNW 23:16:27 57° NNW
Meteor 1-27 4.4 23:13:39 10° N 23:19:09 58° ENE 23:19:32 57° E
USA 215 3.9 23:15:05 10° NE 23:21:21 51° NW 23:27:14 12° WSW
Cosmos 1943 3.9 23:21:52 39° E 23:21:52 39° E 23:26:39 10° NE
Cosmos 1408 4.5 23:27:00 27° NE 23:27:00 27° NE 23:28:58 10° NNE
Cosmos 1603 4.0 23:32:22 51° E 23:32:22 51° E 23:37:38 10° NNE
SJ 16-02 2.1 23:28:39 10° NNW 23:31:53 46° NW 23:31:53 46° NW
Cosmos 1825 4.1 23:35:53 24° NE 23:35:53 24° NE 23:37:53 10° NNE
Cosmos 1825 Rocket 4.0 23:41:53 60° N 23:41:53 60° N 23:45:34 10° N
Cosmos 468 Rocket 3.9 23:44:16 83° NNE 23:44:16 83° NNE 23:49:19 10° NNE
Lacrosse 4 Rocket 4.3 23:45:42 10° NNE 23:46:45 11° NE 23:47:47 10° ENE
GP-B 3.9 23:44:02 10° N 23:47:38 43° NW 23:47:38 43° NW
USA 267 3.4 23:49:00 28° ESE 23:52:45 72° NE 23:59:16 10° NW
GEOS 3 Rocket 4.5 23:54:27 38° W 23:54:27 38° W 23:58:29 10° NW
SL-16 R/B 3.8 23:51:33 21° W 23:53:43 27° WNW 23:58:31 10° N
Cosmos 405 Rocket 4.1 23:56:54 36° NNE 23:56:54 36° NNE 23:59:11 10° NNE
USA 306 4.1 23:57:20 35° ENE 23:57:20 35° ENE 23:59:54 10° NE
